Year,Month,Day,Hour,Minute,Value (Times are PST for temperature in C)
2019,05,27,00,00,15.80
2019,05,27,00,01,15.80
2019,05,27,00,02,15.80
2019,05,27,00,03,15.70
2019,05,27,00,04,15.70
2019,05,27,00,05,15.70
2019,05,27,00,06,15.70
2019,05,27,00,07,15.60
2019,05,27,00,08,15.60
2019,05,27,00,09,15.60
2019,05,27,00,10,15.60
2019,05,27,00,11,15.60
2019,05,27,00,12,15.60
2019,05,27,00,13,15.60
2019,05,27,00,14,15.60
2019,05,27,00,15,15.60
2019,05,27,00,16,15.60
2019,05,27,00,17,15.60
2019,05,27,00,18,15.50
2019,05,27,00,19,15.50
2019,05,27,00,20,15.50
2019,05,27,00,21,15.50
2019,05,27,00,22,15.50
2019,05,27,00,23,15.50
2019,05,27,00,24,15.50
2019,05,27,00,25,15.50
2019,05,27,00,26,15.40
2019,05,27,00,27,15.50
2019,05,27,00,28,15.40
2019,05,27,00,29,15.40
2019,05,27,00,30,15.40
2019,05,27,00,31,15.40
2019,05,27,00,32,15.40
2019,05,27,00,33,15.40
2019,05,27,00,34,15.40
2019,05,27,00,35,15.40
2019,05,27,00,36,15.40
2019,05,27,00,37,15.40
2019,05,27,00,38,15.40
2019,05,27,00,39,15.40
2019,05,27,00,40,15.40
2019,05,27,00,41,15.40
2019,05,27,00,42,15.40
2019,05,27,00,43,15.40
2019,05,27,00,44,15.40
2019,05,27,00,45,15.40
2019,05,27,00,46,15.40
2019,05,27,00,47,15.40
2019,05,27,00,48,15.40
2019,05,27,00,49,15.40
2019,05,27,00,50,15.40
2019,05,27,00,51,15.40
2019,05,27,00,52,15.30
2019,05,27,00,53,15.30
2019,05,27,00,54,15.30
2019,05,27,00,55,15.30
2019,05,27,00,56,15.30
2019,05,27,00,57,15.30
2019,05,27,00,58,15.30
2019,05,27,00,59,15.30
2019,05,27,01,00,15.30
2019,05,27,01,01,15.30
2019,05,27,01,02,15.30
2019,05,27,01,03,15.30
2019,05,27,01,04,15.30
2019,05,27,01,05,15.30
2019,05,27,01,06,15.30
2019,05,27,01,07,15.30
2019,05,27,01,08,15.30
2019,05,27,01,09,15.20
2019,05,27,01,10,15.20
2019,05,27,01,11,15.20
2019,05,27,01,12,15.20
2019,05,27,01,13,15.20
2019,05,27,01,14,15.20
2019,05,27,01,15,15.20
2019,05,27,01,16,15.10
2019,05,27,01,17,15.10
2019,05,27,01,18,15.10
2019,05,27,01,19,15.10
2019,05,27,01,20,15.10
2019,05,27,01,21,15.10
2019,05,27,01,22,15.10
2019,05,27,01,23,15.10
2019,05,27,01,24,15.00
2019,05,27,01,25,15.00
2019,05,27,01,26,15.00
2019,05,27,01,27,15.00
2019,05,27,01,28,15.00
2019,05,27,01,29,15.00
2019,05,27,01,30,15.00
2019,05,27,01,31,15.00
2019,05,27,01,32,15.00
2019,05,27,01,33,15.00
2019,05,27,01,34,15.00
2019,05,27,01,35,15.00
2019,05,27,01,36,15.00
2019,05,27,01,37,15.00
2019,05,27,01,38,15.00
2019,05,27,01,39,15.00
2019,05,27,01,40,15.00
2019,05,27,01,41,15.00
2019,05,27,01,42,15.00
2019,05,27,01,43,15.00
2019,05,27,01,44,15.00
2019,05,27,01,45,15.00
2019,05,27,01,46,15.00
2019,05,27,01,47,15.00
2019,05,27,01,48,15.00
2019,05,27,01,49,15.00
2019,05,27,01,50,15.00
2019,05,27,01,51,15.00
2019,05,27,01,52,15.00
2019,05,27,01,53,15.00
2019,05,27,01,54,15.00
2019,05,27,01,55,15.00
2019,05,27,01,56,15.00
2019,05,27,01,57,15.00
2019,05,27,01,58,15.00
2019,05,27,01,59,15.00
2019,05,27,02,00,15.00
2019,05,27,02,01,15.00
2019,05,27,02,02,15.00
2019,05,27,02,03,15.00
2019,05,27,02,04,15.00
2019,05,27,02,05,15.00
2019,05,27,02,06,15.00
2019,05,27,02,07,15.00
2019,05,27,02,08,15.00
2019,05,27,02,09,15.00
2019,05,27,02,10,15.00
2019,05,27,02,11,15.00
2019,05,27,02,12,15.00
2019,05,27,02,13,15.00
2019,05,27,02,14,15.00
2019,05,27,02,15,15.00
2019,05,27,02,16,15.00
2019,05,27,02,17,15.00
2019,05,27,02,18,15.00
2019,05,27,02,19,15.00
2019,05,27,02,20,15.00
2019,05,27,02,21,15.00
2019,05,27,02,22,15.00
2019,05,27,02,23,15.00
2019,05,27,02,24,15.00
2019,05,27,02,25,15.00
2019,05,27,02,26,15.00
2019,05,27,02,27,14.90
2019,05,27,02,28,14.90
2019,05,27,02,29,14.90
2019,05,27,02,30,14.90
2019,05,27,02,31,14.90
2019,05,27,02,32,14.90
2019,05,27,02,33,14.80
2019,05,27,02,34,14.80
2019,05,27,02,35,14.80
2019,05,27,02,36,14.80
2019,05,27,02,37,14.70
2019,05,27,02,38,14.70
2019,05,27,02,39,14.70
2019,05,27,02,40,14.70
2019,05,27,02,41,14.70
2019,05,27,02,42,14.70
2019,05,27,02,43,14.60
2019,05,27,02,44,14.60
2019,05,27,02,45,14.60
2019,05,27,02,46,14.60
2019,05,27,02,47,14.60
2019,05,27,02,48,14.50
2019,05,27,02,49,14.50
2019,05,27,02,50,14.50
2019,05,27,02,51,14.50
2019,05,27,02,52,14.50
2019,05,27,02,53,14.40
2019,05,27,02,54,14.40
2019,05,27,02,55,14.40
2019,05,27,02,56,14.40
2019,05,27,02,57,14.40
2019,05,27,02,58,14.40
2019,05,27,02,59,14.30
2019,05,27,03,00,14.30
2019,05,27,03,01,14.30
2019,05,27,03,02,14.30
2019,05,27,03,03,14.30
2019,05,27,03,04,14.30
2019,05,27,03,05,14.20
2019,05,27,03,06,14.20
2019,05,27,03,07,14.20
2019,05,27,03,08,14.10
2019,05,27,03,09,14.10
2019,05,27,03,10,14.00
2019,05,27,03,11,14.00
2019,05,27,03,12,14.00
2019,05,27,03,13,13.90
2019,05,27,03,14,13.90
2019,05,27,03,15,13.90
2019,05,27,03,16,13.90
2019,05,27,03,17,13.90
2019,05,27,03,18,13.80
2019,05,27,03,19,13.80
2019,05,27,03,20,13.80
2019,05,27,03,21,13.80
2019,05,27,03,22,13.80
2019,05,27,03,23,13.70
2019,05,27,03,24,13.70
2019,05,27,03,25,13.70
2019,05,27,03,26,13.70
2019,05,27,03,27,13.70
2019,05,27,03,28,13.60
2019,05,27,03,29,13.60
2019,05,27,03,30,13.60
2019,05,27,03,31,13.60
2019,05,27,03,32,13.60
2019,05,27,03,33,13.50
2019,05,27,03,34,13.50
2019,05,27,03,35,13.50
2019,05,27,03,36,13.50
2019,05,27,03,37,13.40
2019,05,27,03,38,13.40
2019,05,27,03,39,13.40
2019,05,27,03,40,13.40
2019,05,27,03,41,13.40
2019,05,27,03,42,13.30
2019,05,27,03,43,13.30
2019,05,27,03,44,13.30
2019,05,27,03,45,13.30
2019,05,27,03,46,13.30
2019,05,27,03,47,13.30
2019,05,27,03,48,13.30
2019,05,27,03,49,13.20
2019,05,27,03,50,13.20
2019,05,27,03,51,13.20
2019,05,27,03,52,13.20
2019,05,27,03,53,13.20
2019,05,27,03,54,13.20
2019,05,27,03,55,13.20
2019,05,27,03,56,13.20
2019,05,27,03,57,13.20
2019,05,27,03,58,13.20
2019,05,27,03,59,13.10
2019,05,27,04,00,13.10
2019,05,27,04,01,13.10
2019,05,27,04,02,13.10
2019,05,27,04,03,13.10
2019,05,27,04,04,13.10
2019,05,27,04,05,13.10
2019,05,27,04,06,13.00
2019,05,27,04,07,13.00
2019,05,27,04,08,13.00
2019,05,27,04,09,13.00
2019,05,27,04,10,12.90
2019,05,27,04,11,12.90
2019,05,27,04,12,12.90
2019,05,27,04,13,12.90
2019,05,27,04,14,12.90
2019,05,27,04,15,12.90
2019,05,27,04,16,12.80
2019,05,27,04,17,12.80
2019,05,27,04,18,12.80
2019,05,27,04,19,12.80
2019,05,27,04,20,12.80
2019,05,27,04,21,12.80
2019,05,27,04,22,12.80
2019,05,27,04,23,12.70
2019,05,27,04,24,12.70
2019,05,27,04,25,12.70
2019,05,27,04,26,12.70
2019,05,27,04,27,12.70
2019,05,27,04,28,12.60
2019,05,27,04,29,12.60
2019,05,27,04,30,12.60
2019,05,27,04,31,12.60
2019,05,27,04,32,12.60
2019,05,27,04,33,12.60
2019,05,27,04,34,12.60
2019,05,27,04,35,12.60
2019,05,27,04,36,12.60
2019,05,27,04,37,12.60
2019,05,27,04,38,12.60
2019,05,27,04,39,12.60
2019,05,27,04,40,12.50
2019,05,27,04,41,12.50
2019,05,27,04,42,12.50
2019,05,27,04,43,12.50
2019,05,27,04,44,12.50
2019,05,27,04,45,12.50
2019,05,27,04,46,12.50
2019,05,27,04,47,12.50
2019,05,27,04,48,12.50
2019,05,27,04,49,12.40
2019,05,27,04,50,12.40
2019,05,27,04,51,12.40
2019,05,27,04,52,12.40
2019,05,27,04,53,12.40
2019,05,27,04,54,12.40
2019,05,27,04,55,12.40
2019,05,27,04,56,12.30
2019,05,27,04,57,12.30
2019,05,27,04,58,12.30
2019,05,27,04,59,12.30
2019,05,27,05,00,12.30
2019,05,27,05,01,12.20
2019,05,27,05,02,12.20
2019,05,27,05,03,12.20
2019,05,27,05,04,12.20
2019,05,27,05,05,12.20
2019,05,27,05,06,12.20
2019,05,27,05,07,12.20
2019,05,27,05,08,12.20
2019,05,27,05,09,12.10
2019,05,27,05,10,12.10
2019,05,27,05,11,12.10
2019,05,27,05,12,12.10
2019,05,27,05,13,12.10
2019,05,27,05,14,12.10
2019,05,27,05,15,12.10
2019,05,27,05,16,12.10
2019,05,27,05,17,12.10
2019,05,27,05,18,12.10
2019,05,27,05,19,12.00
2019,05,27,05,20,12.00
2019,05,27,05,21,12.00
2019,05,27,05,22,12.00
2019,05,27,05,23,12.00
2019,05,27,05,24,12.00
2019,05,27,05,25,12.00
2019,05,27,05,26,12.00
2019,05,27,05,27,11.90
2019,05,27,05,28,11.90
2019,05,27,05,29,11.90
2019,05,27,05,30,11.90
2019,05,27,05,31,11.90
2019,05,27,05,32,11.90
2019,05,27,05,33,11.90
2019,05,27,05,34,11.90
2019,05,27,05,35,11.80
2019,05,27,05,36,11.80
2019,05,27,05,37,11.80
2019,05,27,05,38,11.80
2019,05,27,05,39,11.80
2019,05,27,05,40,11.80
2019,05,27,05,41,11.80
2019,05,27,05,42,11.80
2019,05,27,05,43,11.80
2019,05,27,05,44,11.80
2019,05,27,05,45,11.80
2019,05,27,05,46,11.80
2019,05,27,05,47,11.80
2019,05,27,05,48,11.80
2019,05,27,05,49,11.80
2019,05,27,05,50,11.80
2019,05,27,05,51,11.80
2019,05,27,05,52,11.80
2019,05,27,05,53,11.70
2019,05,27,05,54,11.70
2019,05,27,05,55,11.70
2019,05,27,05,56,11.70
2019,05,27,05,57,11.70
2019,05,27,05,58,11.70
2019,05,27,05,59,11.70
2019,05,27,06,00,11.70
2019,05,27,06,01,11.70
2019,05,27,06,02,11.60
2019,05,27,06,03,11.60
2019,05,27,06,04,11.60
2019,05,27,06,05,11.60
2019,05,27,06,06,11.60
2019,05,27,06,07,11.60
2019,05,27,06,08,11.60
2019,05,27,06,09,11.60
2019,05,27,06,10,11.60
2019,05,27,06,11,11.60
2019,05,27,06,12,11.60
2019,05,27,06,13,11.60
2019,05,27,06,14,11.60
2019,05,27,06,15,11.60
2019,05,27,06,16,11.60
2019,05,27,06,17,11.60
2019,05,27,06,18,11.60
2019,05,27,06,19,11.60
2019,05,27,06,20,11.60
2019,05,27,06,21,11.60
2019,05,27,06,22,11.60
2019,05,27,06,23,11.60
2019,05,27,06,24,11.60
2019,05,27,06,25,11.60
2019,05,27,06,26,11.60
2019,05,27,06,27,11.60
2019,05,27,06,28,11.60
2019,05,27,06,29,11.60
2019,05,27,06,30,11.60
2019,05,27,06,31,11.60
2019,05,27,06,32,11.60
2019,05,27,06,33,11.60
2019,05,27,06,34,11.60
2019,05,27,06,35,11.60
2019,05,27,06,36,11.60
2019,05,27,06,37,11.60
2019,05,27,06,38,11.60
2019,05,27,06,39,11.60
2019,05,27,06,40,11.60
2019,05,27,06,41,11.60
2019,05,27,06,42,11.60
2019,05,27,06,43,11.60
2019,05,27,06,44,11.60
2019,05,27,06,45,11.60
2019,05,27,06,46,11.60
2019,05,27,06,47,11.60
2019,05,27,06,48,11.60
2019,05,27,06,49,11.60
2019,05,27,06,50,11.60
2019,05,27,06,51,11.60
2019,05,27,06,52,11.60
2019,05,27,06,53,11.60
2019,05,27,06,54,11.60
2019,05,27,06,55,11.60
2019,05,27,06,56,11.60
2019,05,27,06,57,11.60
2019,05,27,06,58,11.60
2019,05,27,06,59,11.60
2019,05,27,07,00,11.60
2019,05,27,07,01,11.60
2019,05,27,07,02,11.60
2019,05,27,07,03,11.60
2019,05,27,07,04,11.60
2019,05,27,07,05,11.60
2019,05,27,07,06,11.60
2019,05,27,07,07,11.60
2019,05,27,07,08,11.60
2019,05,27,07,09,11.60
2019,05,27,07,10,11.60
2019,05,27,07,11,11.60
2019,05,27,07,12,11.60
2019,05,27,07,13,11.60
2019,05,27,07,14,11.60
2019,05,27,07,15,11.60
2019,05,27,07,16,11.60
2019,05,27,07,17,11.60
2019,05,27,07,18,11.60
2019,05,27,07,19,11.60
2019,05,27,07,20,11.60
2019,05,27,07,21,11.60
2019,05,27,07,22,11.60
2019,05,27,07,23,11.70
2019,05,27,07,24,11.70
2019,05,27,07,25,11.70
2019,05,27,07,26,11.70
2019,05,27,07,27,11.70
2019,05,27,07,28,11.70
2019,05,27,07,29,11.70
2019,05,27,07,30,11.70
2019,05,27,07,31,11.70
2019,05,27,07,32,11.70
2019,05,27,07,33,11.70
2019,05,27,07,34,11.80
2019,05,27,07,35,11.80
2019,05,27,07,36,11.80
2019,05,27,07,37,11.80
2019,05,27,07,38,11.80
2019,05,27,07,39,11.80
2019,05,27,07,40,11.80
2019,05,27,07,41,11.80
2019,05,27,07,42,11.90
2019,05,27,07,43,11.90
2019,05,27,07,44,11.90
2019,05,27,07,45,11.90
2019,05,27,07,46,12.00
2019,05,27,07,47,12.00
2019,05,27,07,48,12.00
2019,05,27,07,49,12.10
2019,05,27,07,50,12.10
2019,05,27,07,51,12.10
2019,05,27,07,52,12.10
2019,05,27,07,53,12.10
2019,05,27,07,54,12.20
2019,05,27,07,55,12.20
2019,05,27,07,56,12.20
2019,05,27,07,57,12.30
2019,05,27,07,58,12.30
2019,05,27,07,59,12.30
2019,05,27,08,00,12.40
2019,05,27,08,01,12.40
2019,05,27,08,02,12.50
2019,05,27,08,03,12.50
2019,05,27,08,04,12.60
2019,05,27,08,05,12.60
2019,05,27,08,06,12.70
2019,05,27,08,07,12.70
2019,05,27,08,08,12.80
2019,05,27,08,09,12.80
2019,05,27,08,10,12.90
2019,05,27,08,11,12.90
2019,05,27,08,12,12.90
2019,05,27,08,13,13.00
2019,05,27,08,14,13.00
2019,05,27,08,15,13.00
2019,05,27,08,16,13.10
2019,05,27,08,17,13.10
2019,05,27,08,18,13.10
2019,05,27,08,19,13.10
2019,05,27,08,20,13.10
2019,05,27,08,21,13.10
2019,05,27,08,22,13.10
2019,05,27,08,23,13.20
2019,05,27,08,24,13.20
2019,05,27,08,25,13.20
2019,05,27,08,26,13.20
2019,05,27,08,27,13.30
2019,05,27,08,28,13.30
2019,05,27,08,29,13.30
2019,05,27,08,30,13.30
2019,05,27,08,31,13.30
2019,05,27,08,32,13.40
2019,05,27,08,33,13.40
2019,05,27,08,34,13.40
2019,05,27,08,35,13.40
2019,05,27,08,36,13.50
2019,05,27,08,37,13.50
2019,05,27,08,38,13.60
2019,05,27,08,39,13.60
2019,05,27,08,40,13.60
2019,05,27,08,41,13.60
2019,05,27,08,42,13.70
2019,05,27,08,43,13.70
2019,05,27,08,44,13.70
2019,05,27,08,45,13.70
2019,05,27,08,46,13.70
2019,05,27,08,47,13.70
2019,05,27,08,48,13.80
2019,05,27,08,49,13.80
2019,05,27,08,50,13.80
2019,05,27,08,51,13.80
2019,05,27,08,52,13.90
2019,05,27,08,53,13.90
2019,05,27,08,54,13.90
2019,05,27,08,55,14.00
2019,05,27,08,56,14.00
2019,05,27,08,57,14.10
2019,05,27,08,58,14.20
2019,05,27,08,59,14.20
2019,05,27,09,00,14.30
2019,05,27,09,01,14.40
2019,05,27,09,02,14.50
2019,05,27,09,03,14.60
2019,05,27,09,04,14.70
2019,05,27,09,05,14.70
2019,05,27,09,06,14.90
2019,05,27,09,07,15.00
2019,05,27,09,08,15.00
2019,05,27,09,09,15.00
2019,05,27,09,10,15.10
2019,05,27,09,11,15.30
2019,05,27,09,12,15.40
2019,05,27,09,13,15.50
2019,05,27,09,14,15.60
2019,05,27,09,15,15.70
2019,05,27,09,16,15.70
2019,05,27,09,17,15.80
2019,05,27,09,18,15.90
2019,05,27,09,19,15.90
2019,05,27,09,20,16.00
2019,05,27,09,21,16.10
2019,05,27,09,22,16.10
2019,05,27,09,23,16.20
2019,05,27,09,24,16.30
2019,05,27,09,25,16.30
2019,05,27,09,26,16.40
2019,05,27,09,27,16.50
2019,05,27,09,28,16.60
2019,05,27,09,29,16.70
2019,05,27,09,30,16.80
2019,05,27,09,31,16.90
2019,05,27,09,32,17.00
2019,05,27,09,33,17.10
2019,05,27,09,34,17.20
2019,05,27,09,35,17.30
2019,05,27,09,36,17.40
2019,05,27,09,37,17.40
2019,05,27,09,38,17.50
2019,05,27,09,39,17.60
2019,05,27,09,40,17.70
2019,05,27,09,41,17.70
2019,05,27,09,42,17.80
2019,05,27,09,43,17.90
2019,05,27,09,44,17.90
2019,05,27,09,45,18.00
2019,05,27,09,46,18.10
2019,05,27,09,47,18.20
2019,05,27,09,48,18.20
2019,05,27,09,49,18.30
2019,05,27,09,50,18.40
2019,05,27,09,51,18.50
2019,05,27,09,52,18.50
2019,05,27,09,53,18.60
2019,05,27,09,54,18.70
2019,05,27,09,55,18.70
2019,05,27,09,56,18.80
2019,05,27,09,57,18.80
2019,05,27,09,58,18.90
2019,05,27,09,59,18.90
2019,05,27,10,00,19.00
2019,05,27,10,01,19.00
2019,05,27,10,02,19.10
2019,05,27,10,03,19.10
2019,05,27,10,04,19.10
2019,05,27,10,05,19.20
2019,05,27,10,06,19.20
2019,05,27,10,07,19.20
2019,05,27,10,08,19.30
2019,05,27,10,09,19.30
2019,05,27,10,10,19.30
2019,05,27,10,11,19.30
2019,05,27,10,12,19.30
2019,05,27,10,13,19.40
2019,05,27,10,14,19.40
2019,05,27,10,15,19.40
2019,05,27,10,16,19.40
2019,05,27,10,17,19.40
2019,05,27,10,18,19.40
2019,05,27,10,19,19.40
2019,05,27,10,20,19.50
2019,05,27,10,21,19.50
2019,05,27,10,22,19.50
2019,05,27,10,23,19.60
2019,05,27,10,24,19.60
2019,05,27,10,25,19.60
2019,05,27,10,26,19.60
2019,05,27,10,27,19.70
2019,05,27,10,28,19.70
2019,05,27,10,29,19.70
2019,05,27,10,30,19.70
2019,05,27,10,31,19.80
2019,05,27,10,32,19.80
2019,05,27,10,33,19.80
2019,05,27,10,34,19.80
2019,05,27,10,35,19.90
2019,05,27,10,36,20.00
2019,05,27,10,37,20.00
2019,05,27,10,38,20.10
2019,05,27,10,39,20.10
2019,05,27,10,40,20.20
2019,05,27,10,41,20.30
2019,05,27,10,42,20.40
2019,05,27,10,43,20.40
2019,05,27,10,44,20.50
2019,05,27,10,45,20.60
2019,05,27,10,46,20.70
2019,05,27,10,47,20.70
2019,05,27,10,48,20.70
2019,05,27,10,49,20.80
2019,05,27,10,50,20.80
2019,05,27,10,51,20.80
2019,05,27,10,52,20.90
2019,05,27,10,53,20.90
2019,05,27,10,54,21.00
2019,05,27,10,55,21.10
2019,05,27,10,56,21.10
2019,05,27,10,57,21.20
2019,05,27,10,58,21.20
2019,05,27,10,59,21.20
2019,05,27,11,00,21.20
2019,05,27,11,01,21.20
2019,05,27,11,02,21.30
2019,05,27,11,03,21.30
2019,05,27,11,04,21.40
2019,05,27,11,05,21.40
2019,05,27,11,06,21.50
2019,05,27,11,07,21.50
2019,05,27,11,08,21.50
2019,05,27,11,09,21.60
2019,05,27,11,10,21.60
2019,05,27,11,11,21.60
2019,05,27,11,12,21.60
2019,05,27,11,13,21.60
2019,05,27,11,14,21.60
2019,05,27,11,15,21.60
2019,05,27,11,16,21.60
2019,05,27,11,17,21.60
2019,05,27,11,18,21.60
2019,05,27,11,19,21.60
2019,05,27,11,20,21.50
2019,05,27,11,21,21.50
2019,05,27,11,22,21.50
2019,05,27,11,23,21.50
2019,05,27,11,24,21.50
2019,05,27,11,25,21.50
2019,05,27,11,26,21.50
2019,05,27,11,27,21.50
2019,05,27,11,28,21.50
2019,05,27,11,29,21.50
2019,05,27,11,30,21.50
2019,05,27,11,31,21.60
2019,05,27,11,32,21.60
2019,05,27,11,33,21.70
2019,05,27,11,34,21.70
2019,05,27,11,35,21.70
2019,05,27,11,36,21.80
2019,05,27,11,37,21.80
2019,05,27,11,38,21.80
2019,05,27,11,39,21.90
2019,05,27,11,40,22.00
2019,05,27,11,41,22.00
2019,05,27,11,42,22.10
2019,05,27,11,43,22.10
2019,05,27,11,44,22.20
2019,05,27,11,45,22.20
2019,05,27,11,46,22.30
2019,05,27,11,47,22.40
2019,05,27,11,48,22.50
2019,05,27,11,49,22.50
2019,05,27,11,50,22.60
2019,05,27,11,51,22.70
2019,05,27,11,52,22.70
2019,05,27,11,53,22.80
2019,05,27,11,54,22.90
2019,05,27,11,55,22.90
2019,05,27,11,56,23.00
2019,05,27,11,57,23.10
2019,05,27,11,58,23.10
2019,05,27,11,59,23.20
2019,05,27,12,00,23.20
2019,05,27,12,01,23.30
2019,05,27,12,02,23.30
2019,05,27,12,03,23.30
2019,05,27,12,04,23.30
2019,05,27,12,05,23.30
2019,05,27,12,06,23.40
2019,05,27,12,07,23.40
2019,05,27,12,08,23.40
2019,05,27,12,09,23.50
2019,05,27,12,10,23.50
2019,05,27,12,11,23.50
2019,05,27,12,12,23.60
2019,05,27,12,13,23.60
2019,05,27,12,14,23.70
2019,05,27,12,15,23.70
2019,05,27,12,16,23.70
2019,05,27,12,17,23.80
2019,05,27,12,18,23.80
2019,05,27,12,19,23.80
2019,05,27,12,20,23.90
2019,05,27,12,21,23.90
2019,05,27,12,22,24.00
2019,05,27,12,23,24.10
2019,05,27,12,24,24.20
2019,05,27,12,25,24.20
2019,05,27,12,26,24.30
2019,05,27,12,27,24.30
2019,05,27,12,28,24.30
2019,05,27,12,29,24.30
2019,05,27,12,30,24.40
2019,05,27,12,31,24.40
2019,05,27,12,32,24.40
2019,05,27,12,33,24.40
2019,05,27,12,34,24.40
2019,05,27,12,35,24.30
2019,05,27,12,36,24.30
2019,05,27,12,37,24.30
2019,05,27,12,38,24.30
2019,05,27,12,39,24.30
2019,05,27,12,40,24.30
2019,05,27,12,41,24.30
2019,05,27,12,42,24.30
2019,05,27,12,43,24.30
2019,05,27,12,44,24.30
2019,05,27,12,45,24.30
2019,05,27,12,46,24.30
2019,05,27,12,47,24.30
2019,05,27,12,48,24.30
2019,05,27,12,49,24.30
2019,05,27,12,50,24.30
2019,05,27,12,51,24.30
2019,05,27,12,52,24.30
2019,05,27,12,53,24.30
2019,05,27,12,54,24.30
2019,05,27,12,55,24.30
2019,05,27,12,56,24.40
2019,05,27,12,57,24.40
2019,05,27,12,58,24.50
2019,05,27,12,59,24.70
2019,05,27,13,00,24.70
2019,05,27,13,01,24.80
2019,05,27,13,02,24.80
2019,05,27,13,03,24.70
2019,05,27,13,04,24.70
2019,05,27,13,05,24.70
2019,05,27,13,06,24.70
2019,05,27,13,07,24.70
2019,05,27,13,08,24.70
2019,05,27,13,09,24.70
2019,05,27,13,10,24.80
2019,05,27,13,11,24.90
2019,05,27,13,12,24.90
2019,05,27,13,13,25.00
2019,05,27,13,14,25.10
2019,05,27,13,15,25.20
2019,05,27,13,16,25.20
2019,05,27,13,17,25.30
2019,05,27,13,18,25.30
2019,05,27,13,19,25.40
2019,05,27,13,20,25.40
2019,05,27,13,21,25.40
2019,05,27,13,22,25.50
2019,05,27,13,23,25.50
2019,05,27,13,24,25.50
2019,05,27,13,25,25.50
2019,05,27,13,26,25.50
2019,05,27,13,27,25.50
2019,05,27,13,28,25.50
2019,05,27,13,29,25.50
2019,05,27,13,30,25.50
2019,05,27,13,31,25.60
2019,05,27,13,32,25.60
2019,05,27,13,33,25.60
2019,05,27,13,34,25.60
2019,05,27,13,35,25.50
2019,05,27,13,36,25.50
2019,05,27,13,37,25.50
2019,05,27,13,38,25.40
2019,05,27,13,39,25.40
2019,05,27,13,40,25.40
2019,05,27,13,41,25.40
2019,05,27,13,42,25.40
2019,05,27,13,43,25.40
2019,05,27,13,44,25.40
2019,05,27,13,45,25.40
2019,05,27,13,46,25.50
2019,05,27,13,47,25.50
2019,05,27,13,48,25.60
2019,05,27,13,49,25.70
2019,05,27,13,50,25.70
2019,05,27,13,51,25.80
2019,05,27,13,52,25.90
2019,05,27,13,53,25.90
2019,05,27,13,54,25.90
2019,05,27,13,55,26.00
2019,05,27,13,56,26.10
2019,05,27,13,57,26.10
2019,05,27,13,58,26.20
2019,05,27,13,59,26.20
2019,05,27,14,00,26.30
2019,05,27,14,01,26.40
2019,05,27,14,02,26.40
2019,05,27,14,03,26.40
2019,05,27,14,04,26.50
2019,05,27,14,05,26.50
2019,05,27,14,06,26.60
2019,05,27,14,07,26.70
2019,05,27,14,08,26.70
2019,05,27,14,09,26.80
2019,05,27,14,10,26.80
2019,05,27,14,11,26.90
2019,05,27,14,12,27.00
2019,05,27,14,13,27.10
2019,05,27,14,14,27.10
2019,05,27,14,15,27.20
2019,05,27,14,16,27.20
2019,05,27,14,17,27.30
2019,05,27,14,18,27.40
2019,05,27,14,19,27.50
2019,05,27,14,20,27.60
2019,05,27,14,21,27.60
2019,05,27,14,22,27.70
2019,05,27,14,23,27.70
2019,05,27,14,24,27.60
2019,05,27,14,25,27.60
2019,05,27,14,26,27.60
2019,05,27,14,27,27.60
2019,05,27,14,28,27.60
2019,05,27,14,29,27.60
2019,05,27,14,30,27.70
2019,05,27,14,31,27.80
2019,05,27,14,32,27.90
2019,05,27,14,33,28.10
2019,05,27,14,34,28.20
2019,05,27,14,35,28.20
2019,05,27,14,36,28.30
2019,05,27,14,37,28.30
2019,05,27,14,38,28.40
2019,05,27,14,39,28.50
2019,05,27,14,40,28.50
2019,05,27,14,41,28.50
2019,05,27,14,42,28.50
2019,05,27,14,43,28.50
2019,05,27,14,44,28.50
2019,05,27,14,45,28.60
2019,05,27,14,46,28.60
2019,05,27,14,47,28.70
2019,05,27,14,48,28.70
2019,05,27,14,49,28.70
2019,05,27,14,50,28.70
2019,05,27,14,51,28.70
2019,05,27,14,52,28.60
2019,05,27,14,53,28.50
2019,05,27,14,54,28.40
2019,05,27,14,55,28.40
2019,05,27,14,56,28.30
2019,05,27,14,57,28.30
2019,05,27,14,58,28.40
2019,05,27,14,59,28.40
2019,05,27,15,00,28.50
2019,05,27,15,01,28.60
2019,05,27,15,02,28.60
2019,05,27,15,03,28.60
2019,05,27,15,04,28.60
2019,05,27,15,05,28.70
2019,05,27,15,06,28.60
2019,05,27,15,07,28.50
2019,05,27,15,08,28.60
2019,05,27,15,09,28.60
2019,05,27,15,10,28.60
2019,05,27,15,11,28.70
2019,05,27,15,12,28.70
2019,05,27,15,13,28.70
2019,05,27,15,14,28.70
2019,05,27,15,15,28.80
2019,05,27,15,16,28.80
2019,05,27,15,17,28.90
2019,05,27,15,18,28.90
2019,05,27,15,19,29.00
2019,05,27,15,20,29.10
2019,05,27,15,21,29.10
2019,05,27,15,22,29.20
2019,05,27,15,23,29.30
2019,05,27,15,24,29.40
2019,05,27,15,25,29.40
2019,05,27,15,26,29.40
2019,05,27,15,27,29.40
2019,05,27,15,28,29.40
2019,05,27,15,29,29.30
2019,05,27,15,30,29.30
2019,05,27,15,31,29.30
2019,05,27,15,32,29.30
2019,05,27,15,33,29.40
2019,05,27,15,34,29.40
2019,05,27,15,35,29.40
2019,05,27,15,36,29.40
2019,05,27,15,37,29.40
2019,05,27,15,38,29.40
2019,05,27,15,39,29.40
2019,05,27,15,40,29.40
2019,05,27,15,41,29.40
2019,05,27,15,42,29.40
2019,05,27,15,43,29.40
2019,05,27,15,44,29.40
2019,05,27,15,45,29.40
2019,05,27,15,46,29.40
2019,05,27,15,47,29.40
2019,05,27,15,48,29.50
2019,05,27,15,49,29.60
2019,05,27,15,50,29.60
2019,05,27,15,51,29.70
2019,05,27,15,52,29.70
2019,05,27,15,53,29.80
2019,05,27,15,54,29.80
2019,05,27,15,55,29.70
2019,05,27,15,56,29.60
2019,05,27,15,57,29.60
2019,05,27,15,58,29.60
2019,05,27,15,59,29.50
2019,05,27,16,00,29.50
2019,05,27,16,01,29.50
2019,05,27,16,02,29.60
2019,05,27,16,03,29.60
2019,05,27,16,04,29.60
2019,05,27,16,05,29.60
2019,05,27,16,06,29.60
2019,05,27,16,07,29.70
2019,05,27,16,08,29.70
2019,05,27,16,09,29.80
2019,05,27,16,10,29.80
2019,05,27,16,11,29.80
2019,05,27,16,12,29.90
2019,05,27,16,13,29.90
2019,05,27,16,14,30.00
2019,05,27,16,15,30.00
2019,05,27,16,16,30.10
2019,05,27,16,17,30.20
2019,05,27,16,18,30.20
2019,05,27,16,19,30.20
2019,05,27,16,20,30.20
2019,05,27,16,21,30.20
2019,05,27,16,22,30.10
2019,05,27,16,23,30.10
2019,05,27,16,24,30.10
2019,05,27,16,25,30.00
2019,05,27,16,26,29.90
2019,05,27,16,27,29.90
2019,05,27,16,28,29.80
2019,05,27,16,29,29.60
2019,05,27,16,30,29.60
2019,05,27,16,31,29.50
2019,05,27,16,32,29.40
2019,05,27,16,33,29.30
2019,05,27,16,34,29.30
2019,05,27,16,35,29.20
2019,05,27,16,36,29.10
2019,05,27,16,37,29.00
2019,05,27,16,38,28.90
2019,05,27,16,39,28.80
2019,05,27,16,40,28.70
2019,05,27,16,41,28.60
2019,05,27,16,42,28.50
2019,05,27,16,43,28.50
2019,05,27,16,44,28.40
2019,05,27,16,45,28.30
2019,05,27,16,46,28.30
2019,05,27,16,47,28.20
2019,05,27,16,48,28.20
2019,05,27,16,49,28.20
2019,05,27,16,50,28.20
2019,05,27,16,51,28.20
2019,05,27,16,52,28.20
2019,05,27,16,53,28.20
2019,05,27,16,54,28.20
2019,05,27,16,55,28.20
2019,05,27,16,56,28.30
2019,05,27,16,57,28.30
2019,05,27,16,58,28.30
2019,05,27,16,59,28.30
2019,05,27,17,00,28.20
2019,05,27,17,01,28.20
2019,05,27,17,02,28.20
2019,05,27,17,03,28.20
2019,05,27,17,04,28.20
2019,05,27,17,05,28.10
2019,05,27,17,06,28.10
2019,05,27,17,07,28.10
2019,05,27,17,08,28.10
2019,05,27,17,09,28.10
2019,05,27,17,10,28.00
2019,05,27,17,11,28.00
2019,05,27,17,12,27.90
2019,05,27,17,13,27.90
2019,05,27,17,14,27.90
2019,05,27,17,15,27.90
2019,05,27,17,16,27.90
2019,05,27,17,17,27.90
2019,05,27,17,18,27.90
2019,05,27,17,19,27.90